Terminal Aerodrome Forecast
Issued by NWS

Home | Current Version | Previous Version | Text Only | Print | Product List | Glossary On
Versions: 1 2 3 4 5 6 7 8 9 10 11 12
000
FTUS42 TJSJ 041120
TAFISX
TAF
TISX 041120Z 0412/0512 08010KT P6SM SCT026
     FM041300 09018KT P6SM SCT018
     FM042300 07010KT P6SM SCT018=

USA.gov is the U.S. government's official web portal to all federal, state and local government web resources and services.